Regional Weather Roundup
Issued by NWS

Home | Current Version | Previous Version | Graphics & Text | Print | Product List | Glossary On
Versions: 1 2 3 4 5 6 7 8 9 10 11 12 13 14 15 16 17 18 19 20 21 22 23 24 25 26 27 28 29 30 31 32 33 34 35 36 37 38 39 40 41 42 43 44 45 46 47 48 49 50
000
ASUS45 KBOI 100710
RWRID

IDAHO REGIONAL WEATHER ROUNDUP
NATIONAL WEATHER SERVICE BOISE ID
1200 AM MST WED FEB 10 2016

NOTE: "FAIR" INDICATES FEW OR NO CLOUDS BELOW 12000 FEET
WITH NO SIGNIFICANT WEATHER AND/OR OBSTRUCTIONS TO VISIBILITY

IDZ012-014-100800-
SOUTHWEST IDAHO


CITY           SKY/WX    TMP DP  RH WIND       PRES   REMARKS
BOISE          PTCLDY    30  28  92 CALM      30.43F
CALDWELL       PTCLDY    28  27  96 SW5       30.47R FOG     WCI  23
MOUNTAIN HOME  PTCLDY    29  26  87 E5        30.43F WCI  24
$$

IDZ016-017-100800-
SOUTHCENTRAL IDAHO


CITY           SKY/WX    TMP DP  RH WIND       PRES   REMARKS
BURLEY         CLEAR     26  24  92 NE9       30.39F WCI  17
JEROME         CLEAR     26  21  81 NE20      30.40S WCI  12
TWIN FALLS     CLEAR     26  24  92 E5        30.40F WCI  20
$$

IDZ019>023-100800-
SOUTHEAST IDAHO


CITY           SKY/WX    TMP DP  RH WIND       PRES   REMARKS
IDAHO FALLS    FOG       14  11  87 NE3       30.46S VSB 1/2
POCATELLO      CLOUDY    18  16  92 CALM      30.45F
REXBURG        CLOUDY    11   8  88 CALM      30.44S
$$

IDZ006-010-011-018-031-032-100800-
CENTRAL IDAHO MOUNTAINS


CITY           SKY/WX    TMP DP  RH WIND       PRES   REMARKS
MCCALL         FOG       19  16  88 CALM      30.35F VSB 1/4
HAILEY         CLEAR     27  21  80 NW7       30.42S WCI  19
STANLEY          N/A     10   6  84 E5        30.42S WCI   2
SALMON         CLOUDY     9   9 100 SE3       30.44S
CHALLIS        FOG       11   9  92 CALM      30.41S VSB 1/4
$$

IDZ002-004-006-007-026-100800-
NORTHERN IDAHO


CITY           SKY/WX    TMP DP  RH WIND       PRES   REMARKS
LEWISTON       MOCLDY    41  35  79 CALM      30.28R
LOWELL           N/A     33  31  92 CALM      30.35S
COEUR D`ALENE  PTCLDY    32  28  86 E7        30.23S WCI  26
MULLAN PASS    CLEAR     40  26  57 S5        30.24F
$$



USA.gov is the U.S. government's official web portal to all federal, state and local government web resources and services.